Flag for Germany Weather past 2 weeks in Wertheim, Baden-Württemberg, Germany

Now
60 °F

Overcast.


Feels Like: 60 °F
Forecast: 43 / 59 °F
Wind: 3 mph from West

Location: Wuerzburg

Current Time: Oct 20, 2014 at 10:43:20 AM

Latest Report: Oct 20, 2014 at 10:00 AM


Visibility: 28 mi

Pressure: 30.08 "Hg

Humidity: 90%

Dew point: 57 °F

Location of WertheimLocation

Historic Weather in Wertheim — Graph

°F

Wertheim temperature yesterday

Maximum temperature yesterday: 72 °F (at 3:00 PM)
Minimum temperature yesterday: 49 °F (at 7:00 AM)
Average temperature yesterday: 58 °F

Past Weeks' High & Low Weather Summary

 TemperatureHumidityPressure
High75 °F (Oct 9, 4:00 PM)100% (Oct 7, 8:00 AM)30.25 "Hg (Oct 7, 8:00 AM)
Low46 °F (Oct 18, 7:00 AM)51% (Oct 9, 5:00 PM)29.72 "Hg (Oct 7, 1:00 PM)
Average57 °F91%29.92 "Hg
* Reported Oct 5 9:00 AM — Oct 20 9:00 AM, Wertheim, Weather by CustomWeather, © 2014

Note: Actual official high and low records may vary slightly from our data, if they occured in-between our weather recording intervals... More about our weather records

Advertising

Wertheim weather history for previous 24 hours

 ConditionsComfort  
Time TempWeatherWind HumidityBarometerVisibility
9:00 AM
Oct 20
59 °FOvercast.2 mph92%30.08 "Hg25 mi
8:00 AM61 °FOvercast.2 mph82%30.07 "Hg37 mi
7:00 AM60 °FOvercast.5 mph91%30.06 "Hg28 mi
5:00 AM62 °FDrizzle. Overcast.8 mph87%30.05 "Hg12 mi
4:00 AM63 °FLight rain. Overcast.8 mph86%30.07 "Hg22 mi
3:00 AM61 °FPassing clouds.5 mph90%30.07 "Hg25 mi
2:00 AM61 °FPassing clouds.2 mph89%30.07 "Hg25 mi
1:00 AM61 °FPassing clouds.6 mph89%30.07 "Hg22 mi
12:00 AM62 °FClear.6 mph85%30.06 "Hg25 mi
11:00 PM
Oct 19
63 °FClear.6 mph84%30.06 "Hg25 mi
10:00 PM60 °FPassing clouds.3 mph91%30.07 "Hg19 mi
9:00 PM61 °FPassing clouds.3 mph90%30.06 "Hg19 mi
8:00 PM64 °FPassing clouds.5 mph83%30.07 "Hg28 mi
7:00 PM65 °FPassing clouds.5 mph80%30.06 "Hg31 mi
6:00 PM68 °FPassing clouds.6 mph73%30.06 "Hg37 mi
5:00 PM71 °FPassing clouds.7 mph63%30.04 "Hg37 mi
4:00 PM72 °FPassing clouds.9 mph59%30.06 "Hg37 mi
3:00 PM72 °FPassing clouds.7 mph64%30.08 "Hg37 mi
2:00 PM71 °FPassing clouds.6 mph68%30.09 "Hg37 mi
1:00 PM66 °FPassing clouds.2 mph80%30.11 "Hg28 mi
12:00 PM58 °FFog.1 mph100%30.15 "Hg15 mi
11:00 AM51 °FFog.1 mph100%30.17 "Hg0 mi
10:00 AM50 °FFog.1 mph100%30.19 "Hg0 mi
Weather by CustomWeather, © 2014

See weather overviewHow to use our weather pages